{"data":{"norad_id":53888,"intl_designator":"2022-119C","name":"STARLINK-5034","alt_names":[],"object_type":"PAYLOAD","status":"ACTIVE","operator":null,"country":"US","launch_date":"2022-09-24","launch_site_code":"AFETR","launch_vehicle":null,"mission":null,"orbit_class":"UNKNOWN","rcs_meters":null,"size_class":null,"mass_kg":null,"dimensions":null,"purposes":["comms"],"wikipedia_slug":null,"has_3d_model":false,"image_url":null,"decayed_at":null,"tle_current":{"epoch":"2026-07-01T22:03:41.174784Z","epoch_age_seconds":7046926,"freshness":"OLD","line1":"1 53888U 22119C   26182.91922656  .09024339  12426-4  23368-3 0  9990","line2":"2 53888  53.1966 123.7390 0009035 244.3938 115.6179 16.45149664209590","mean_motion":16.45149664,"eccentricity":0.0009035,"inclination_deg":53.1966,"raan_deg":123.739,"arg_perigee_deg":244.3938,"mean_anomaly_deg":115.6179,"bstar":0.00023368,"rev_number":20959,"period_min":87.530030337714,"perigee_km":146.23933044051,"apogee_km":158.03953995892,"semimajor_km":6530.2764351997,"source":"CELESTRAK","updated_at":"2026-07-02T09:00:32.647082Z"}}}